Regional Weather Roundup
Issued by NWS

Home | Current Version | Previous Version | Graphics & Text | Print | Product List | Glossary On
Versions: 1 2 3 4 5 6 7 8 9 10 11 12 13 14 15 16 17 18 19 20 21 22 23 24 25 26 27 28 29 30 31 32 33 34 35 36 37 38 39 40 41 42 43 44 45 46 47 48 49 50
000
ASUS43 KLSX 201607
RWRMO

WEATHER SUMMARY FOR MISSOURI
NATIONAL WEATHER SERVICE SPRINGFIELD MO
1100 AM CDT FRI OCT 20 2017

NOTE: "FAIR" INDICATES FEW OR NO CLOUDS BELOW 12,000 FEET WITH NO
       SIGNIFICANT WEATHER AND/OR OBSTRUCTIONS TO VISIBILITY.
       CURRENT SKY AND/OR WEATHER CONDITIONS ARE NOT AVAILABLE FOR
       CHILLICOTHE AND FARMINGTON.

MOZ001>031-035>038-043-044-053-054-201700-
...NORTHERN AND WESTERN MISSOURI...

CITY           SKY/WX    TMP DP  RH WIND       PRES   REMARKS
KANSAS CTY INT PTSUNNY   67  56  67 S14       30.05F
KANSAS C DTWN  SUNNY     69  56  62 S12       30.05F
LEE`S SUMMIT   LGT RAIN  64  55  72 S16       30.08F
ST JOSEPH      CLOUDY    66  56  70 S12G24    30.02F
CHILLICOTHE      N/A     66  55  67 S14       30.10F
KIRKSVILLE     CLOUDY    66  55  67 SW9       30.12F

$$
MOZ066>068-077>081-088>096-101>105-201700-
...SOUTHWEST MISSOURI...

CITY           SKY/WX    TMP DP  RH WIND       PRES   REMARKS
SPRINGFIELD    SUNNY     67  53  61 S15       30.16F
JOPLIN         SUNNY     66  57  72 S15       30.12F
BRANSON        MOSUNNY   66  50  55 SE7       30.18F

$$
MOZ032>034-039>042-045>050-055>058-069>072-201700-
...CENTRAL MISSOURI...

CITY           SKY/WX    TMP DP  RH WIND       PRES   REMARKS
COLUMBIA       SUNNY     62  54  74 S8        30.15F
JEFFERSON CITY SUNNY     62  53  72 SE5       30.15F
ROLLA          SUNNY     68  50  52 S10       30.18F
SEDALIA        MOSUNNY   68  56  65 S13       30.13F
WHITEMAN AFB   MOSUNNY   67  56  66 S15       30.06F
WARRENSBURG    SUNNY     64  54  68 S10G18    30.10F
OSAGE BEACH    MOSUNNY   64  54  69 S5        30.17F

$$
MOZ051-052-059>065-201700-
...EAST CENTRAL MISSOURI...

CITY           SKY/WX    TMP DP  RH WIND       PRES   REMARKS
ST LOUIS INTL  NOT AVBL
SPIRIT OF STL  SUNNY     69  53  56 S7        30.19F
ST CHARLES     SUNNY     68  52  56 S9        30.20F

$$
MOZ072>076-082>087-097>100-106>115-201700-
...SOUTH CENTRAL AND SOUTHEAST MISSOURI...

CITY           SKY/WX    TMP DP  RH WIND       PRES   REMARKS
CAPE GIRARDEAU SUNNY     69  53  56 VRB6      30.24F
FARMINGTON     SUNNY     70  53  54 SW9       30.22F
POPLAR BLUFF   SUNNY     66  55  67 SE5       30.23F
WEST PLAINS    SUNNY     65  51  60 S7        30.22S

$$


USA.gov is the U.S. government's official web portal to all federal, state and local government web resources and services.